Location: Namasale
(1.5000°N, 32.6167°E)
Time: 20:18:09
(UTC+00:00)

Vanguard 1 Rocket - Pass Details

Date: 27 April 2021
Orbit: 652 x 4224 km, 34.3° (Epoch: 09 May)

Event Time Altitude Azimuth Distance (km) Brightness Sun altitude
Rises 06:22:12 0° 242° (WSW) 8,260 11.8 37.9°
Reaches altitude 10° 06:28:38 10° 246° (WSW) 6,920 11.5 39.4°
Maximum altitude 06:48:46 54° 318° (NW) 2,875 10.3 44.2°
Drops below altitude 10° 06:59:21 10° 35° (NE) 3,843 11.3 46.7°
Sets 07:01:52 0° 40° (NE) 4,496 11.5 47.3°
